Location: Newport
(44.6370°N, 124.0520°W)
Time: 22:23:53
(UTC-08:00)

Vanguard 2 - All Passes

Search period start: 13 December 2017 00:00
Search period end: 23 December 2017 00:00
Orbit: 553 x 2939 km, 32.9° (Epoch: 13 December)

Date Brightness Start Highest point End Pass type
(mag) Time Alt. Az. Time Alt. Az. Time Alt. Az.
13 Dec - 15:05:41 10° SSW 15:10:34 18° SSE 15:14:19 10° SE daylight
13 Dec - 17:14:13 10° SW 17:18:31 21° S 17:21:54 10° SE visible
13 Dec - 19:24:01 10° SW 19:25:54 13° SSW 19:27:43 10° S visible
14 Dec - 13:16:35 10° S 13:19:57 12° SSE 13:22:52 10° SE daylight
14 Dec - 15:22:49 10° SW 15:28:31 22° S 15:32:42 10° ESE daylight
14 Dec - 17:32:07 10° WSW 17:36:22 21° S 17:39:44 10° SE visible
15 Dec - 13:32:07 10° SSW 13:37:57 17° SSE 13:42:28 10° SE daylight
15 Dec - 15:40:18 10° SW 15:46:28 25° S 15:50:50 10° ESE daylight
15 Dec - 17:50:10 10° WSW 17:54:11 20° SSW 17:57:26 10° SE visible
16 Dec - 13:48:42 10° SSW 13:55:58 22° SSE 14:01:11 10° ESE daylight
16 Dec - 15:58:00 10° SW 16:04:23 27° S 16:08:51 10° SE daylight
16 Dec - 18:08:23 10° WSW 18:11:57 18° SSW 18:14:55 10° SSE visible
17 Dec - 11:58:59 10° S 12:04:51 15° SSE 12:09:38 10° SE daylight
17 Dec - 14:05:48 10° SW 14:13:57 26° S 14:19:32 10° ESE daylight
17 Dec - 16:15:53 10° WSW 16:22:17 28° S 16:26:43 10° SE daylight
17 Dec - 18:26:54 10° WSW 18:29:40 14° SSW 18:32:04 10° S visible
18 Dec - 12:14:39 10° SSW 12:22:51 20° SSE 12:29:00 10° ESE daylight
18 Dec - 14:23:15 10° SW 14:31:55 30° S 14:37:41 10° ESE daylight
18 Dec - 16:33:53 10° WSW 16:40:07 27° SSW 16:44:29 10° SE daylight
18 Dec - 18:46:17 10° SW 18:47:18 11° SSW 18:48:15 10° SSW visible
19 Dec - 10:28:15 10° SSE 10:31:15 11° SSE 10:34:03 10° SE daylight
19 Dec - 12:31:09 10° SSW 12:40:51 25° SSE 12:47:42 10° ESE daylight
19 Dec - 14:40:55 10° WSW 14:49:53 33° S 14:55:42 10° ESE daylight
19 Dec - 16:52:00 10° WSW 16:57:54 25° SSW 17:02:07 10° SE daylight
20 Dec - 10:41:30 10° S 10:49:12 16° SSE 10:55:32 10° ESE daylight
20 Dec - 12:48:10 10° SW 12:58:51 30° SSE 13:06:04 10° ESE daylight
20 Dec - 14:58:46 10° WSW 15:07:48 35° S 15:13:37 10° ESE daylight
20 Dec - 17:10:17 10° WSW 17:15:37 22° SSW 17:19:34 10° SSE visible
21 Dec - 10:57:01 10° SSW 11:07:10 22° SSE 11:14:57 10° ESE daylight
21 Dec - 13:05:31 10° SW 13:16:50 35° S 13:24:15 10° ESE daylight
21 Dec - 15:16:45 10° WSW 15:25:41 35° S 15:31:26 10° SE daylight
21 Dec - 17:28:47 10° WSW 17:33:15 18° SSW 17:36:45 10° SSE visible
22 Dec - 09:11:37 10° SSE 09:15:13 11° SE 09:18:35 10° SE daylight
22 Dec - 11:13:22 10° SSW 11:25:08 27° SSE 11:33:43 10° ESE daylight
22 Dec - 13:23:08 10° SW 13:34:49 39° S 13:42:17 10° ESE daylight
22 Dec - 15:34:50 10° WSW 15:43:31 34° SSW 15:49:09 10° SE daylight
22 Dec - 17:47:45 10° WSW 17:50:48 13° SW 17:53:23 10° S visible
